Big Piney, WY

7:54 PM MDT on May 22, 2017 (GMT -0600)
Big Piney-Marbleton

Weather History for KBPI - June, 2014

Change the Weather History Date:

Friday, June 6, 2014

  Actual Average Record
Temperature  
Mean Temperature 52 °F 52 °F  
Max Temperature 75 °F 69 °F 88 °F (1977)
Min Temperature 28 °F 35 °F 23 °F (2012)
Degree Days  
Heating Degree Days 13 13  
Month to date heating degree days 67 82  
Since 1 June heating degree days 67 82  
Since 1 July heating degree days 9426 10208  
Cooling Degree Days 0 0  
Month to date cooling degree days 0 0  
Year to date cooling degree days 0 0  
Since 1 June cooling degree days 0 0  
Moisture  
Dew Point 20 °F    
Average Humidity 37    
Maximum Humidity 63    
Minimum Humidity 10    
Precipitation  
Precipitation 0.00 in 0.03 in 0.08 in (2008)
Month to date precipitation 0.00 0.18  
Year to date precipitation 1.15 2.65  
Sea Level Pressure  
Sea Level Pressure 29.89 in    
Wind  
Wind Speed 9 mph (NW)    
Max Wind Speed 39 mph    
Max Gust Speed 53 mph    
Visibility 10 miles    
Events      
T = Trace of Precipitation, MM = Missing Value Source: NWS Daily Summary

Daily Weather History Graph

Daily Weather History Graph

Search for Another Location

Airport or City:

Trip Planner

Search our weather history database for the weather conditions in past years. The results will help you decide how hot, cold, wet, or windy it might be!

Date:

Astronomy

Jun. 06, 2014 Rise Set
Actual Time 5:43 AM MDT 8:55 PM MDT
Civil Twilight 5:09 AM MDT 9:29 PM MDT
Nautical Twilight 4:24 AM MDT 10:14 PM MDT
Astronomical Twilight 3:31 AM MDT 11:07 PM MDT
Moon 2:09 PM MDT (6/6) 1:45 AM MDT (6/6)
Length of Visible Light 16h 20m
Length of Day
15h 11m
First Quarter, 59% of the Moon is Illuminated
Jun 6
First Quarter
Jun 12
Full
Jun 19
Last Quarter
Jun 27
New
Jul 5
First Quarter

Hourly Weather History & Observations

Time (MDT) Temp. Windchill Dew Point Humidity Pressure Visibility Wind Dir Wind Speed Gust Speed Precip Events Conditions
12:53 AM 37.9 °F 35.5 °F 19.9 °F 48% 29.88 in 10.0 mi NE 3.5 mph - N/A   Clear
1:53 AM 36.0 °F 29.0 °F 19.0 °F 50% 29.88 in 10.0 mi North 9.2 mph - N/A   Clear
2:53 AM 34.0 °F 31.0 °F 21.9 °F 61% 29.88 in 10.0 mi East 3.5 mph - N/A   Clear
3:53 AM 30.9 °F 27.5 °F 19.9 °F 64% 29.89 in 10.0 mi East 3.5 mph - N/A   Clear
4:53 AM 32.0 °F 27.5 °F 17.1 °F 54% 29.90 in 10.0 mi East 4.6 mph - N/A   Clear
5:53 AM 28.0 °F - 17.1 °F 63% 29.92 in 10.0 mi Calm Calm - N/A   Clear
6:53 AM 35.1 °F - 19.9 °F 54% 29.90 in 10.0 mi Calm Calm - N/A   Clear
7:53 AM 45.0 °F - 21.0 °F 39% 29.88 in 10.0 mi Calm Calm - N/A   Clear
8:53 AM 51.8 °F - 23.0 °F 33% 30.11 in 10.0 mi ESE 3.5 mph - N/A   Clear
9:53 AM 61.0 °F - 21.9 °F 22% 29.88 in 10.0 mi Variable 3.5 mph - N/A   Clear
10:53 AM 66.0 °F - 25.0 °F 21% 29.86 in 10.0 mi Variable 5.8 mph - N/A   Clear
11:53 AM 71.1 °F - 14.0 °F 11% 29.82 in 10.0 mi WNW 15.0 mph 21.9 mph N/A   Clear
12:53 PM 73.0 °F - 14.0 °F 11% 29.84 in 10.0 mi WNW 12.7 mph 21.9 mph N/A   Clear
1:53 PM 73.0 °F - 17.1 °F 12% 29.84 in 10.0 mi WNW 20.7 mph 27.6 mph N/A   Scattered Clouds
2:53 PM 71.6 °F - 17.6 °F 13% 30.06 in 10.0 mi West 17.3 mph 27.6 mph N/A   Scattered Clouds
3:53 PM 73.9 °F - 19.0 °F 13% 29.84 in 10.0 mi WNW 17.3 mph 28.8 mph N/A   Scattered Clouds
4:53 PM 73.0 °F - 19.9 °F 14% 29.85 in 10.0 mi NW 24.2 mph 35.7 mph N/A   Mostly Cloudy
5:42 PM 68.0 °F - 23.0 °F 18% 30.06 in 10.0 mi West 21.9 mph 52.9 mph N/A   Squalls
5:53 PM 66.9 °F - 21.0 °F 17% 29.89 in 10.0 mi West 15.0 mph - N/A   Partly Cloudy
6:53 PM 68.0 °F - 26.1 °F 21% 29.86 in 10.0 mi WSW 17.3 mph 24.2 mph N/A   Clear
7:53 PM 66.9 °F - 25.0 °F 21% 29.83 in 10.0 mi WNW 8.1 mph - N/A   Partly Cloudy
8:53 PM 57.9 °F - 19.9 °F 23% 29.85 in 10.0 mi NW 11.5 mph - N/A   Clear
9:53 PM 52.0 °F - 17.1 °F 25% 29.84 in 10.0 mi NNW 8.1 mph - N/A   Partly Cloudy
10:53 PM 45.0 °F 41.8 °F 21.9 °F 40% 29.88 in 10.0 mi NW 5.8 mph - N/A   Clear
11:53 PM 41.0 °F 36.4 °F 21.0 °F 45% 29.87 in 10.0 mi NNW 6.9 mph - N/A   Clear